Regional Weather Roundup
Issued by NWS Northern Indiana

Home | Current Version | Previous Version | Text Only | Print | Product List | Glossary Off
Versions: 1 2 3 4 5 6 7 8 9 10 11 12 13 14 15 16 17 18 19 20 21 22 23 24 25 26 27 28 29 30 31 32 33 34 35 36 37 38 39 40 41 42 43 44 45 46 47 48 49 50

377
ASUS43 KIWX 021510
RWRIWX

KIWX WEATHER ROUNDUP
NATIONAL WEATHER SERVICE NORTHERN INDIANA
1000 AM EST FRI DEC 02 2016

NOTE: "FAIR" INDICATES FEW OR NO CLOUDS BELOW 12,000 FEET WITH NO
SIGNIFICANT WEATHER AND/OR OBSTRUCTIONS TO VISIBILITY.

* THESE STATIONS ARE NOT UNDER NWS QUALITY CONTROL. THEY ALSO MAY NOT
  REPORT WEATHER SUCH AS PRECIPITATION OR FOG.

INZ001>027-021600-
NORTHERN INDIANA

CITY           SKY/WX    TMP DP  RH WIND       PRES   REMARKS
GARY*          CLOUDY    39  34  81 W8        30.15
VALPARAISO     CLOUDY    38  33  82 W8        30.14R
MICHIGAN CITY* CLOUDY    37  30  75 W6        30.13R
LAPORTE*       CLOUDY    38  38 100 W8        30.13R
KNOX*          CLOUDY    36  23  60 W10       30.14R
SOUTH BEND     CLOUDY    36  31  82 SW9       30.12R
ELKHART*       CLOUDY    37  32  81 W8        30.10R
GOSHEN         CLOUDY    37  31  78 W12       30.11R
MONTICELLO*    CLOUDY    37  31  79 W8        30.16R
LOGANSPORT*    CLOUDY    36  32  87 W9        30.16S
ROCHESTER*     CLOUDY    37  36  93 W7        30.15R
WARSAW*        CLOUDY    36  32  87 W9        30.12R
ANGOLA*        CLOUDY    36  34  93 W9        30.08R
FORT WAYNE     LGT RAIN  36  33  89 W13       30.13R
HUNTINGTON*    CLOUDY    35  34  96 W8        30.14R WCI  28
PERU/GRISSOM   CLOUDY    37  35  96 W12       30.13R
MARION*        CLOUDY    35  32  90 W12       30.16R WCI  26

$$
INZ028>050-021600-
CENTRAL INDIANA

CITY           SKY/WX    TMP DP  RH WIND       PRES   REMARKS
LAFAYETTE      CLOUDY    37  32  82 W9        30.17R
KOKOMO*        CLOUDY    36  32  85 W13       30.16R
MUNCIE*        CLOUDY    37  31  78 W10       30.15R
INDIANAPOLIS   CLOUDY    37  30  75 W10       30.18R

$$
MIZ043>046-050>051-056>058-064>065-071>073-077>080-021600-
SOUTHWEST LOWER MICHIGAN

CITY           SKY/WX    TMP DP  RH WIND       PRES   REMARKS
BATTLE CREEK   CLOUDY    37  35  92 W8        30.07R
BENTON HARBOR  CLOUDY    39  30  70 NW9G18    30.11R
COLDWATER*     CLOUDY    38  33  82 W13       30.07R
HILLSDALE*     CLOUDY    36  32  87 W13G18    30.04R
HOLLAND        CLOUDY    38  29  70 NW8       30.09R
GRAND RAPIDS   CLOUDY    36  26  67 NW12      30.07R
KALAMAZOO      LGT RAIN  36  33  89 W6        30.09R
STURGIS*       CLOUDY    37  32  84 W9        30.08R
THREE RIVERS*  CLOUDY    38  34  87 W6        30.09R

$$
OHZ001>008-015>018-024>025-021600-
NORTHWEST OHIO

CITY           SKY/WX    TMP DP  RH WIND       PRES   REMARKS
WAUSEON*       CLOUDY    39  34  81 W17G23    30.07R
DEFIANCE       LGT RAIN  38  33  82 SW7       30.11R
FINDLAY        CLOUDY    38  31  76 W17G26    30.09R
TOLEDO EXPRESS CLOUDY    38  33  82 W16       30.07R
TOLEDO METCALF CLOUDY    39  34  82 W14G23    30.08R
LIMA           CLOUDY    35  34  96 W12       30.12R WCI  27

$$
AND FOR LAKE MICHIGAN COASTAL AND OPEN LAKE BUOY OBSERVATIONS

STATION/POSITION TEMP    WIND        PRES    VSBY  WAVE
                 AIR SEA DIR/SP/G                  HT/PER
                 (F)     (DEG/KT/KT) (MB)    (MI)  (FT/S)
CALUMET HARBOR    38     240/  6/ 11 1020.1R
MICHIGAN CITY     40     240/ 18/ 20   N/A
BURNS HARBOR      39     240/ 11/ 14 1021.0R
SAINT JOSEPH      40     280/ 15/ 20 1020.3
SOUTH LAKE BUOY   38 49  300/ 17/ 21 1019.6R         4/ 5

$$
&&




USA.gov is the U.S. government's official web portal to all federal, state and local government web resources and services.